Regional Weather Roundup
Issued by NWS Midland/Odessa, TX

Home | Current Version | Previous Version | Text Only | Print | Product List | Glossary On
Versions: 1 2 3 4 5 6 7 8 9 10 11 12 13 14 15 16 17 18 19 20 21 22 23 24 25 26 27 28 29 30 31 32 33 34 35 36 37 38 39 40 41 42 43 44 45 46 47 48 49 50
000
ASUS44 KMAF 241110
RWRMAF
MIDLAND AREA WEATHER ROUNDUP
NATIONAL WEATHER SERVICE MIDLAND TX
600 AM CDT FRI MAR 24 2017

...IN SOUTHWEST TEXAS AND SOUTHEAST NEW MEXICO...

CITY           SKY/WX    TMP DP  RH WIND       PRES   REMARKS
ALPINE         CLEAR     50  17  26 W14G26    30.06S
ANDREWS        FAIR      51  21  29 W12       29.88S
ARTESIA        CLEAR     52  23  32 W26G38    29.82R
BIG SPRING     CLEAR     57  19  23 SW16      29.91S
CARLSBAD       CLEAR     54  24  31 MISG      29.82F
DRYDEN           N/A     61  21  21 W8        29.92S
FORT STOCKTON  CLEAR     53  20  27 SW12      29.97S
GUAD PASS      CLEAR     41  24  51 W36G45    29.96F WCI  29
HOBBS          CLEAR     50  19  29 SW18      29.87R
MARFA          CLEAR     43  17  35 W12       30.04  WCI  37
MIDLAND AIRPK  CLEAR     57  23  26 SW18G25   29.90S
MIDLAND INTL   CLEAR     56  21  25 SW16G30   29.89F
ODESSA           N/A    N/A N/A N/A MISG      29.90F
PECOS          CLEAR     54  22  28 CALM      29.94F
PRESIDIO       FAIR      59  18  20 W13       30.02S
SEMINOLE       CLEAR     50  22  34 W12G17    29.87S
SNYDER         CLOUDY    58  23  25 SW21G26   29.85S
WINK           CLEAR     52  21  29 W15G23    29.89F
$$
...OTHER STATIONS IN TEXAS...

CITY           SKY/WX    TMP DP  RH WIND       PRES   REMARKS
ABILENE        CLOUDY    58  45  62 S7        29.85S
AMARILLO       CLEAR     44  29  55 S23       29.61F WCI  35
AUSTIN         CLOUDY    69  63  81 S16G25    29.89R
BROWNSVILLE    CLOUDY    75  69  81 S17G29    29.89S
CORPUS CHRISTI CLOUDY    72  69  90 SE24      29.86F
DALLAS FTW     CLOUDY    69  59  70 S20G26    29.86F
DEL RIO        PTCLDY    68  62  81 SE9       29.84S
EL PASO        PTCLDY    51  23  33 W38G53    30.00S
HOUSTON INT    CLOUDY    71  63  75 S10       29.95F
LUBBOCK        CLEAR     48  26  42 SW17      29.77F
SAN ANGELO     CLOUDY    61  37  41 MISG      29.89S
SAN ANTONIO    CLOUDY    68  62  81 S14       29.91R
WACO           CLOUDY    68  61  78 S10       29.93R
WICHITA FALLS  NOT AVBL
$$
...OTHER LOCATIONS IN NEW MEXICO...

CITY           SKY/WX    TMP DP  RH WIND       PRES   REMARKS
ALAMAGORDO     CLOUDY    46  27  46 SW8       29.99R
ALBUQUERQUE    CLOUDY    45  28  51 W17G26    29.83S WCI  38
CANNON AFB     CLEAR     46  22  39 SW31G39   29.67F WCI  36
CLOVIS         CLEAR     45  19  36 SW25G32   29.67F WCI  35
HOLLOMAN AFB   PTCLDY    47  27  45 SW9       30.00R
ROSWELL        CLEAR     51  22  31 W21G31      N/A
RUIDOSO        CLOUDY    37  19  48 W23G37    29.86S WCI  26
SANTA FE       CLOUDY    36  35  96 SW16G29   29.74R WCI  26
TRUTH OR CONSE PTCLDY    47  26  44 W20       29.94S WCI  40
TUCUMCARI      MOCLDY    51  29  42 W36G51    29.54S
$$



USA.gov is the U.S. government's official web portal to all federal, state and local government web resources and services.